Location: Lawrence
(38.9720°N, 95.2350°W)
Time: 00:26:53
(UTC-05:00)

JAS-1B - Visible Passes

Search period start: 24 June 2018 00:00
Search period end: 04 July 2018 00:00
Orbit: 912 x 1743 km, 99.1° (Epoch: 23 June)

Date Brightness Start Highest point End Pass type
(mag) Time Alt. Az. Time Alt. Az. Time Alt. Az.
24 Jun 9.8 01:04:50 10° WSW 01:08:53 14° W 01:13:10 10° NW visible
24 Jun 8.8 21:38:06 10° SE 21:45:52 37° ENE 21:54:26 10° N visible
24 Jun 8.4 23:30:12 23° SSW 23:35:48 57° W 23:45:19 10° NNW visible
25 Jun 8.5 21:57:13 13° SE 22:04:38 48° ENE 22:13:47 10° N visible
25 Jun 8.8 23:49:28 21° SSW 23:55:03 43° W 00:04:09 10° NNW visible
26 Jun 8.3 22:16:29 17° SE 22:23:28 61° ENE 22:33:03 10° N visible
27 Jun 9.1 00:08:44 17° SW 00:14:23 33° W 00:22:50 10° NNW visible
27 Jun 8.1 22:35:45 20° SSE 22:42:24 77° ENE 22:52:15 10° N visible
28 Jun 9.5 00:28:00 13° SW 00:33:47 25° W 00:41:17 10° NW visible
28 Jun 8.1 22:55:01 22° SSE 23:01:25 84° WSW 23:11:22 10° NNW visible
29 Jun 9.8 00:47:37 10° SW 00:53:17 18° W 00:59:20 10° NW visible
29 Jun 9.0 21:23:06 10° ESE 21:30:53 33° ENE 21:39:12 10° N visible
29 Jun 8.3 23:14:18 23° S 23:20:32 67° W 23:30:23 10° NNW visible
30 Jun 10.0 01:09:21 10° WSW 01:12:51 12° W 01:16:28 10° WNW visible
30 Jun 8.7 21:41:20 10° SE 21:49:37 42° ENE 21:58:36 10° N visible
30 Jun 8.6 23:33:35 21° SSW 23:39:44 52° W 23:49:18 10° NNW visible
01 Jul 8.5 22:00:37 14° SE 22:08:25 54° ENE 22:17:55 10° N visible
01 Jul 9.0 23:52:53 19° SSW 23:59:00 40° W 00:08:04 10° NNW visible
02 Jul 8.2 22:19:55 17° SSE 22:27:19 68° ENE 22:37:09 10° N visible
03 Jul 9.3 00:12:09 15° SW 00:18:21 30° W 00:26:41 10° NNW visible
03 Jul 8.1 22:39:13 20° SSE 22:46:18 85° ENE 22:56:18 10° NNW visible
